User: anonymous   Login
Location: Unspecified
(0.0000°N, 0.0000°E)
Time: 00:02:45
(UTC+00:00)
Language:

STARLINK-34663 - Orbit

View from above orbital plane
View from above orbital plane
View from above satellite
View from above satellite

Ground track
Ground track

The orbit is defined by the following mean orbital elements,

1 64807U          26145.18148014 +.00000000 +00000-0 +28291-3 0 00008
2 64807  70.0002 301.6288 0003249 268.2545  91.8242 14.98337124    02
Epoch (UTC): 25 May 2026 04:21:19
Eccentricity: 0.0003249
inclination: 70.0002°
perigee height: 570 km
apogee height: 574 km
right ascension of ascending node: 301.6288°
argument of perigee: 268.2545°
revolutions per day: 14.98337124
mean anomaly at epoch: 91.8242°

The dashed part of the orbit path shows where the satellite is in the earth's shadow,  

DLR